Time,TemperatureF,DewpointF,PressureIn,WindDirection,WindDirectionDegrees,WindSpeedMPH,WindSpeedGustMPH,Humidity,HourlyPrecipIn,Conditions,Clouds,dailyrainin,SolarRadiationWatts/m^2,SoftwareType,DateUTC
2013-01-19 00:02:00,32.4,19.7,30.41,SSE,167,8.0,16.0,59,0.00,,,0.00,0,Wunderground v.1.15,2013-01-19 05:02:00,
2013-01-19 00:12:00,32.6,19.8,30.41,SSW,213,8.0,16.0,59,0.00,,,0.00,0,Wunderground v.1.15,2013-01-19 05:12:00,
2013-01-19 00:17:00,32.8,20.8,30.41,SSW,202,8.0,16.0,61,0.00,,,0.00,0,Wunderground v.1.15,2013-01-19 05:17:00,
2013-01-19 00:22:00,33.0,21.0,30.40,SSW,208,9.0,17.0,61,0.00,,,0.00,0,Wunderground v.1.15,2013-01-19 05:22:00,
2013-01-19 00:32:00,33.2,21.2,30.40,SW,219,9.0,17.0,61,0.00,,,0.00,0,Wunderground v.1.15,2013-01-19 05:32:00,
2013-01-19 00:42:00,33.4,21.4,30.39,SSE,167,10.0,17.0,61,0.00,,,0.00,0,Wunderground v.1.15,2013-01-19 05:42:00,
2013-01-19 00:52:00,33.5,21.9,30.39,SSW,194,8.0,18.0,62,0.00,,,0.00,0,Wunderground v.1.15,2013-01-19 05:52:00,
2013-01-19 01:17:00,34.1,23.2,30.39,SSW,194,10.0,18.0,64,0.00,,,0.00,0,Wunderground v.1.15,2013-01-19 06:17:00,
2013-01-19 01:27:00,34.4,23.5,30.39,SSW,194,11.0,11.0,64,0.00,,,0.00,0,Wunderground v.1.15,2013-01-19 06:27:00,
2013-01-19 01:37:00,34.6,24.0,30.39,SSW,209,10.0,10.0,65,0.00,,,0.00,0,Wunderground v.1.15,2013-01-19 06:37:00,
2013-01-19 01:47:00,35.0,24.0,30.39,SSW,212,11.0,11.0,64,0.00,,,0.00,0,Wunderground v.1.15,2013-01-19 06:47:00,
2013-01-19 01:57:00,35.0,24.4,30.38,SSW,196,9.0,9.0,65,0.00,,,0.00,0,Wunderground v.1.15,2013-01-19 06:57:00,
2013-01-19 02:07:00,35.3,25.1,30.38,South,188,10.0,10.0,66,0.00,,,0.00,0,Wunderground v.1.15,2013-01-19 07:07:00,
2013-01-19 02:17:00,35.5,25.6,30.37,South,181,10.0,10.0,67,0.00,,,0.00,0,Wunderground v.1.15,2013-01-19 07:17:00,
2013-01-19 02:27:00,35.6,25.7,30.37,SW,229,10.0,20.0,67,0.00,,,0.00,0,Wunderground v.1.15,2013-01-19 07:27:00,
2013-01-19 02:37:00,35.8,25.9,30.37,SSW,206,10.0,10.0,67,0.00,,,0.00,0,Wunderground v.1.15,2013-01-19 07:37:00,
2013-01-19 02:47:00,36.1,26.6,30.36,South,175,10.0,10.0,68,0.00,,,0.00,0,Wunderground v.1.15,2013-01-19 07:47:00,
2013-01-19 02:57:00,36.3,25.7,30.36,SW,229,11.0,23.0,65,0.00,,,0.00,0,Wunderground v.1.15,2013-01-19 07:57:00,
2013-01-19 03:07:00,36.6,26.3,30.36,SSW,208,11.0,23.0,66,0.00,,,0.00,0,Wunderground v.1.15,2013-01-19 08:07:00,
2013-01-19 03:17:00,36.6,25.2,30.35,SSW,194,11.0,23.0,63,0.00,,,0.00,0,Wunderground v.1.15,2013-01-19 08:17:00,
2013-01-19 03:27:00,36.6,24.8,30.35,SW,223,11.0,23.0,62,0.00,,,0.00,0,Wunderground v.1.15,2013-01-19 08:27:00,
2013-01-19 03:37:00,36.8,24.6,30.34,South,181,12.0,12.0,61,0.00,,,0.00,0,Wunderground v.1.15,2013-01-19 08:37:00,
2013-01-19 03:42:00,36.8,25.4,30.34,South,191,11.0,23.0,63,0.00,,,0.00,0,Wunderground v.1.15,2013-01-19 08:42:00,
2013-01-19 03:52:00,36.9,25.9,30.34,SSW,202,11.0,11.0,64,0.00,,,0.00,0,Wunderground v.1.15,2013-01-19 08:52:00,
2013-01-19 04:02:00,37.0,25.9,30.34,SW,214,10.0,22.0,64,0.00,,,0.00,0,Wunderground v.1.15,2013-01-19 09:02:00,
2013-01-19 04:12:00,37.1,26.4,30.33,SSW,196,10.0,22.0,65,0.00,,,0.00,0,Wunderground v.1.15,2013-01-19 09:12:00,
2013-01-19 04:22:00,37.3,26.2,30.33,SSW,211,11.0,23.0,64,0.00,,,0.00,0,Wunderground v.1.15,2013-01-19 09:22:00,
2013-01-19 04:27:00,37.3,26.2,30.32,SSW,205,11.0,11.0,64,0.00,,,0.00,0,Wunderground v.1.15,2013-01-19 09:27:00,
2013-01-19 04:37:00,37.6,26.5,30.32,South,184,11.0,23.0,64,0.00,,,0.00,0,Wunderground v.1.15,2013-01-19 09:37:00,
2013-01-19 04:47:00,37.9,27.5,30.32,SW,217,11.0,11.0,66,0.00,,,0.00,0,Wunderground v.1.15,2013-01-19 09:47:00,
2013-01-19 04:57:00,38.0,28.0,30.32,South,190,11.0,11.0,67,0.00,,,0.00,0,Wunderground v.1.15,2013-01-19 09:57:00,
2013-01-19 05:07:00,38.1,27.7,30.32,South,189,12.0,12.0,66,0.00,,,0.00,0,Wunderground v.1.15,2013-01-19 10:07:00,
2013-01-19 05:12:00,38.2,28.2,30.32,South,186,11.0,24.0,67,0.00,,,0.00,0,Wunderground v.1.15,2013-01-19 10:12:00,
2013-01-19 05:22:00,38.3,29.0,30.32,SSW,196,10.0,25.0,69,0.00,,,0.00,0,Wunderground v.1.15,2013-01-19 10:22:00,
2013-01-19 05:32:00,38.5,28.9,30.32,SSW,203,11.0,25.0,68,0.00,,,0.00,0,Wunderground v.1.15,2013-01-19 10:32:00,
2013-01-19 05:37:00,38.6,28.9,30.32,SSW,203,11.0,11.0,68,0.00,,,0.00,0,Wunderground v.1.15,2013-01-19 10:37:00,
2013-01-19 05:47:00,38.8,29.5,30.31,SSW,193,13.0,25.0,69,0.00,,,0.00,0,Wunderground v.1.15,2013-01-19 10:47:00,
2013-01-19 05:52:00,38.9,29.6,30.31,SSW,199,13.0,25.0,69,0.00,,,0.00,0,Wunderground v.1.15,2013-01-19 10:52:00,
2013-01-19 06:02:00,38.9,29.9,30.31,SW,216,11.0,25.0,70,0.00,,,0.00,0,Wunderground v.1.15,2013-01-19 11:02:00,
2013-01-19 06:12:00,39.2,30.6,30.30,SSE,158,14.0,25.0,71,0.00,,,0.00,0,Wunderground v.1.15,2013-01-19 11:12:00,
2013-01-19 07:52:00,40.9,31.9,30.29,SW,229,14.0,30.0,70,0.00,,,0.00,46,Wunderground v.1.15,2013-01-19 12:52:00,
2013-01-19 07:57:00,41.0,32.3,30.29,SSW,202,14.0,30.0,71,0.00,,,0.00,60,Wunderground v.1.15,2013-01-19 12:57:00,
2013-01-19 08:02:00,41.1,32.4,30.29,South,190,13.0,30.0,71,0.00,,,0.00,69,Wunderground v.1.15,2013-01-19 13:02:00,
2013-01-19 08:07:00,41.3,33.0,30.29,WSW,240,13.0,30.0,72,0.00,,,0.00,84,Wunderground v.1.15,2013-01-19 13:07:00,
2013-01-19 08:17:00,41.6,32.5,30.29,SSW,200,15.0,15.0,70,0.00,,,0.00,114,Wunderground v.1.15,2013-01-19 13:17:00,
2013-01-19 08:27:00,41.9,33.2,30.29,SSW,211,14.0,31.0,71,0.00,,,0.00,135,Wunderground v.1.15,2013-01-19 13:27:00,
2013-01-19 08:37:00,42.2,33.1,30.28,SW,220,15.0,15.0,70,0.00,,,0.00,176,Wunderground v.1.15,2013-01-19 13:37:00,
2013-01-19 08:52:00,42.6,33.5,30.29,SSW,198,13.0,18.0,70,0.00,,,0.00,213,Wunderground v.1.15,2013-01-19 13:52:00,
2013-01-19 08:58:00,42.7,33.6,30.29,SSW,204,13.0,28.0,70,0.00,,,0.00,239,Wunderground v.1.15,2013-01-19 13:58:00,
2013-01-19 09:07:00,42.9,33.8,30.28,SSW,205,14.0,28.0,70,0.00,,,0.00,262,Wunderground v.1.15,2013-01-19 14:07:00,
2013-01-19 09:12:00,43.0,33.2,30.28,SSW,207,14.0,28.0,68,0.00,,,0.00,272,Wunderground v.1.15,2013-01-19 14:12:00,
2013-01-19 09:17:00,43.2,33.7,30.28,SSW,194,14.0,28.0,69,0.00,,,0.00,285,Wunderground v.1.15,2013-01-19 14:17:00,
2013-01-19 09:27:00,43.5,33.6,30.28,South,188,15.0,26.0,68,0.00,,,0.00,323,Wunderground v.1.15,2013-01-19 14:27:00,
2013-01-19 09:37:00,43.7,34.2,30.28,SSW,194,14.0,26.0,69,0.00,,,0.00,346,Wunderground v.1.15,2013-01-19 14:37:00,
2013-01-19 09:47:00,43.9,34.0,30.28,SW,235,13.0,26.0,68,0.00,,,0.00,364,Wunderground v.1.15,2013-01-19 14:47:00,
2013-01-19 09:57:00,44.0,34.1,30.27,WSW,244,14.0,31.0,68,0.00,,,0.00,383,Wunderground v.1.15,2013-01-19 14:57:00,
2013-01-19 10:02:00,44.2,35.0,30.27,South,190,14.0,31.0,70,0.00,,,0.00,390,Wunderground v.1.15,2013-01-19 15:02:00,
2013-01-19 10:12:00,44.3,34.4,30.27,SW,219,14.0,31.0,68,0.00,,,0.00,417,Wunderground v.1.15,2013-01-19 15:12:00,
2013-01-19 10:22:00,44.6,34.7,30.25,SSW,207,12.0,32.0,68,0.00,,,0.00,427,Wunderground v.1.15,2013-01-19 15:22:00,
2013-01-19 10:27:00,44.7,34.4,30.25,SSW,202,13.0,32.0,67,0.00,,,0.00,425,Wunderground v.1.15,2013-01-19 15:27:00,
2013-01-19 10:37:00,44.9,35.0,30.24,SSE,168,14.0,14.0,68,0.00,,,0.00,441,Wunderground v.1.15,2013-01-19 15:37:00,
2013-01-19 10:47:00,45.1,34.4,30.24,South,186,13.0,32.0,66,0.00,,,0.00,450,Wunderground v.1.15,2013-01-19 15:47:00,
2013-01-19 10:52:00,45.3,34.6,30.23,SSE,151,13.0,32.0,66,0.00,,,0.00,457,Wunderground v.1.15,2013-01-19 15:52:00,
2013-01-19 11:02:00,45.3,34.6,30.23,South,189,14.0,26.0,66,0.00,,,0.00,466,Wunderground v.1.15,2013-01-19 16:02:00,
2013-01-19 11:12:00,45.4,33.5,30.21,SSW,196,14.0,26.0,63,0.00,,,0.00,475,Wunderground v.1.15,2013-01-19 16:12:00,
2013-01-19 11:17:00,45.5,34.4,30.21,South,188,15.0,26.0,65,0.00,,,0.00,476,Wunderground v.1.15,2013-01-19 16:17:00,
2013-01-19 11:27:00,45.6,34.5,30.20,SSE,159,14.0,26.0,65,0.00,,,0.00,482,Wunderground v.1.15,2013-01-19 16:27:00,
2013-01-19 11:38:00,45.7,34.2,30.20,SSW,196,14.0,14.0,64,0.00,,,0.00,487,Wunderground v.1.15,2013-01-19 16:38:00,
2013-01-19 11:47:00,46.0,34.9,30.20,SSW,202,13.0,26.0,65,0.00,,,0.00,489,Wunderground v.1.15,2013-01-19 16:47:00,
2013-01-19 11:53:00,45.9,34.4,30.19,SW,215,12.0,28.0,64,0.00,,,0.00,487,Wunderground v.1.15,2013-01-19 16:53:00,
2013-01-19 12:02:00,45.7,35.0,30.18,WSW,237,15.0,19.0,66,0.00,,,0.00,492,Wunderground v.1.15,2013-01-19 17:02:00,
2013-01-19 12:22:00,46.1,35.4,30.16,South,185,13.0,30.0,66,0.00,,,0.00,487,Wunderground v.1.15,2013-01-19 17:22:00,
2013-01-19 12:27:00,46.1,34.2,30.16,SSW,201,13.0,13.0,63,0.00,,,0.00,487,Wunderground v.1.15,2013-01-19 17:27:00,
2013-01-19 12:32:00,46.0,34.5,30.15,South,190,14.0,14.0,64,0.00,,,0.00,487,Wunderground v.1.15,2013-01-19 17:32:00,
2013-01-19 12:53:00,46.0,34.5,30.13,SSW,203,14.0,30.0,64,0.00,,,0.00,473,Wunderground v.1.15,2013-01-19 17:53:00,
2013-01-19 13:02:00,46.1,35.4,30.13,South,180,13.0,28.0,66,0.00,,,0.00,464,Wunderground v.1.15,2013-01-19 18:02:00,
2013-01-19 13:12:00,46.3,35.2,30.13,SSW,205,13.0,28.0,65,0.00,,,0.00,454,Wunderground v.1.15,2013-01-19 18:12:00,
2013-01-19 13:18:00,46.2,34.3,30.13,SSW,200,13.0,28.0,63,0.00,,,0.00,448,Wunderground v.1.15,2013-01-19 18:18:00,
2013-01-19 13:28:00,46.1,35.4,30.13,South,185,13.0,30.0,66,0.00,,,0.00,436,Wunderground v.1.15,2013-01-19 18:28:00,
2013-01-19 13:38:00,46.2,35.1,30.12,SSW,197,13.0,30.0,65,0.00,,,0.00,424,Wunderground v.1.15,2013-01-19 18:38:00,
2013-01-19 13:47:00,46.4,35.3,30.11,SSW,208,13.0,30.0,65,0.00,,,0.00,406,Wunderground v.1.15,2013-01-19 18:47:00,
2013-01-19 13:57:00,46.7,35.6,30.10,South,189,12.0,25.0,65,0.00,,,0.00,397,Wunderground v.1.15,2013-01-19 18:57:00,
2013-01-19 14:07:00,46.5,35.4,30.10,South,186,11.0,11.0,65,0.00,,,0.00,392,Wunderground v.1.15,2013-01-19 19:07:00,
2013-01-19 14:17:00,46.5,35.7,30.10,SW,227,12.0,25.0,66,0.00,,,0.00,374,Wunderground v.1.15,2013-01-19 19:17:00,
2013-01-19 14:23:00,46.5,35.7,30.10,SSW,198,11.0,25.0,66,0.00,,,0.00,364,Wunderground v.1.15,2013-01-19 19:23:00,
2013-01-19 14:32:00,46.5,36.1,30.09,SSW,200,11.0,25.0,67,0.00,,,0.00,360,Wunderground v.1.15,2013-01-19 19:32:00,
2013-01-19 14:47:00,46.5,36.5,30.09,SW,221,11.0,11.0,68,0.00,,,0.00,346,Wunderground v.1.15,2013-01-19 19:47:00,
2013-01-19 15:02:00,45.9,36.3,30.09,SSE,165,10.0,20.0,69,0.00,,,0.00,246,Wunderground v.1.15,2013-01-19 20:02:00,
2013-01-19 15:12:00,46.0,36.8,30.09,South,169,10.0,15.0,70,0.00,,,0.00,195,Wunderground v.1.15,2013-01-19 20:12:00,
2013-01-19 15:23:00,45.9,37.4,30.09,South,182,10.0,14.0,72,0.00,,,0.00,285,Wunderground v.1.15,2013-01-19 20:23:00,
2013-01-19 15:32:00,46.2,37.7,30.08,SSW,199,10.0,23.0,72,0.00,,,0.00,250,Wunderground v.1.15,2013-01-19 20:32:00,
2013-01-19 15:42:00,46.3,37.4,30.08,South,180,10.0,18.0,71,0.00,,,0.00,183,Wunderground v.1.15,2013-01-19 20:42:00,
2013-01-19 15:52:00,46.1,37.2,30.08,South,169,10.0,23.0,71,0.00,,,0.00,148,Wunderground v.1.15,2013-01-19 20:52:00,
2013-01-19 15:57:00,45.9,37.4,30.07,South,188,10.0,20.0,72,0.00,,,0.00,127,Wunderground v.1.15,2013-01-19 20:57:00,
2013-01-19 16:07:00,45.6,37.4,30.07,SSW,213,11.0,11.0,73,0.00,,,0.00,79,Wunderground v.1.15,2013-01-19 21:07:00,
2013-01-19 16:18:00,45.3,37.5,30.06,South,179,9.0,9.0,74,0.00,,,0.00,46,Wunderground v.1.15,2013-01-19 21:18:00,
2013-01-19 16:27:00,45.0,37.9,30.06,SSW,196,9.0,21.0,76,0.00,,,0.00,23,Wunderground v.1.15,2013-01-19 21:27:00,
2013-01-19 16:32:00,44.9,37.8,30.07,South,180,10.0,21.0,76,0.00,,,0.00,19,Wunderground v.1.15,2013-01-19 21:32:00,
2013-01-19 16:38:00,44.9,37.8,30.06,South,183,11.0,11.0,76,0.00,,,0.00,14,Wunderground v.1.15,2013-01-19 21:38:00,
2013-01-19 16:57:00,44.6,37.8,30.06,South,182,10.0,10.0,77,0.00,,,0.00,0,Wunderground v.1.15,2013-01-19 21:57:00,
2013-01-19 17:07:00,44.6,38.2,30.05,SSW,207,9.0,20.0,78,0.00,,,0.00,0,Wunderground v.1.15,2013-01-19 22:07:00,
2013-01-19 17:17:00,44.5,38.1,30.05,SSW,203,9.0,9.0,78,0.00,,,0.00,0,Wunderground v.1.15,2013-01-19 22:17:00,
2013-01-19 17:27:00,44.5,38.1,30.05,SSW,206,9.0,19.0,78,0.00,,,0.00,0,Wunderground v.1.15,2013-01-19 22:27:00,
2013-01-19 17:32:00,44.6,38.2,30.05,SW,217,9.0,19.0,78,0.00,,,0.00,0,Wunderground v.1.15,2013-01-19 22:32:00,
2013-01-19 17:42:00,44.6,38.2,30.05,SSW,205,8.0,19.0,78,0.00,,,0.00,0,Wunderground v.1.15,2013-01-19 22:42:00,
2013-01-19 17:57:00,44.7,38.3,30.05,SSW,194,8.0,8.0,78,0.00,,,0.00,0,Wunderground v.1.15,2013-01-19 22:57:00,
2013-01-19 18:02:00,44.7,38.3,30.05,SSW,192,8.0,17.0,78,0.00,,,0.00,0,Wunderground v.1.15,2013-01-19 23:02:00,
2013-01-19 18:07:00,44.7,38.3,30.05,SSW,209,8.0,8.0,78,0.00,,,0.00,0,Wunderground v.1.15,2013-01-19 23:07:00,
2013-01-19 18:17:00,44.7,38.6,30.05,SSE,157,8.0,17.0,79,0.00,,,0.00,0,Wunderground v.1.15,2013-01-19 23:17:00,
2013-01-19 18:27:00,44.6,38.5,30.05,SSW,200,8.0,20.0,79,0.00,,,0.00,0,Wunderground v.1.15,2013-01-19 23:27:00,
2013-01-19 18:32:00,44.5,38.7,30.05,SW,229,8.0,20.0,80,0.00,,,0.00,0,Wunderground v.1.15,2013-01-19 23:32:00,
2013-01-19 18:42:00,44.4,38.9,30.04,SSW,197,8.0,20.0,81,0.00,,,0.00,0,Wunderground v.1.15,2013-01-19 23:42:00,
2013-01-19 18:47:00,44.5,38.7,30.04,SSW,200,7.0,20.0,80,0.00,,,0.00,0,Wunderground v.1.15,2013-01-19 23:47:00,
2013-01-19 18:57:00,44.9,39.1,30.04,South,191,8.0,18.0,80,0.00,,,0.00,0,Wunderground v.1.15,2013-01-19 23:57:00,
2013-01-19 19:07:00,45.1,39.0,30.04,SSE,162,11.0,18.0,79,0.00,,,0.00,0,Wunderground v.1.15,2013-01-20 00:07:00,
2013-01-19 19:17:00,45.3,39.2,30.04,South,182,11.0,18.0,79,0.00,,,0.00,0,Wunderground v.1.15,2013-01-20 00:17:00,
2013-01-19 19:27:00,45.4,38.9,30.04,South,188,11.0,11.0,78,0.00,,,0.00,0,Wunderground v.1.15,2013-01-20 00:27:00,
2013-01-19 19:32:00,45.1,39.0,30.03,SW,216,9.0,22.0,79,0.00,,,0.00,0,Wunderground v.1.15,2013-01-20 00:32:00,
2013-01-19 19:37:00,44.9,38.8,30.03,SSW,198,9.0,9.0,79,0.00,,,0.00,0,Wunderground v.1.15,2013-01-20 00:37:00,
2013-01-19 19:42:00,44.9,38.8,30.03,SSW,209,9.0,10.0,79,0.00,,,0.00,0,Wunderground v.1.15,2013-01-20 00:42:00,
2013-01-19 19:52:00,45.2,39.1,30.03,SW,219,10.0,22.0,79,0.00,,,0.00,0,Wunderground v.1.15,2013-01-20 00:52:00,
2013-01-19 19:58:00,45.0,38.9,30.03,SSW,205,9.0,9.0,79,0.00,,,0.00,0,Wunderground v.1.15,2013-01-20 00:58:00,
2013-01-19 20:07:00,44.7,38.9,30.03,SSW,197,7.0,21.0,80,0.00,,,0.00,0,Wunderground v.1.15,2013-01-20 01:07:00,
2013-01-19 20:22:00,44.8,39.0,30.02,SW,232,8.0,21.0,80,0.00,,,0.00,0,Wunderground v.1.15,2013-01-20 01:22:00,
2013-01-19 20:32:00,44.8,39.0,30.02,SSW,209,7.0,20.0,80,0.00,,,0.00,0,Wunderground v.1.15,2013-01-20 01:32:00,
2013-01-19 20:37:00,45.0,39.2,30.02,SSW,200,8.0,20.0,80,0.00,,,0.00,0,Wunderground v.1.15,2013-01-20 01:37:00,
2013-01-19 20:43:00,45.0,38.9,30.01,South,190,8.0,20.0,79,0.00,,,0.00,0,Wunderground v.1.15,2013-01-20 01:43:00,
2013-01-19 20:52:00,45.2,39.1,30.01,South,169,8.0,20.0,79,0.00,,,0.00,0,Wunderground v.1.15,2013-01-20 01:52:00,
2013-01-19 21:02:00,45.0,38.9,30.01,SW,229,9.0,18.0,79,0.00,,,0.00,0,Wunderground v.1.15,2013-01-20 02:02:00,
2013-01-19 21:07:00,45.0,38.9,30.01,South,188,8.0,18.0,79,0.00,,,0.00,0,Wunderground v.1.15,2013-01-20 02:07:00,
2013-01-19 21:12:00,44.9,38.8,30.01,WSW,249,7.0,18.0,79,0.00,,,0.00,0,Wunderground v.1.15,2013-01-20 02:12:00,
2013-01-19 21:22:00,44.9,38.8,30.00,SSW,193,8.0,18.0,79,0.00,,,0.00,0,Wunderground v.1.15,2013-01-20 02:22:00,
2013-01-19 21:27:00,44.9,38.8,30.00,SW,214,7.0,16.0,79,0.00,,,0.00,0,Wunderground v.1.15,2013-01-20 02:27:00,
2013-01-19 21:37:00,45.2,38.4,30.00,South,189,9.0,9.0,77,0.00,,,0.00,0,Wunderground v.1.15,2013-01-20 02:37:00,
2013-01-19 21:42:00,45.2,38.4,29.99,South,183,8.0,16.0,77,0.00,,,0.00,0,Wunderground v.1.15,2013-01-20 02:42:00,
2013-01-19 21:48:00,45.3,38.2,29.99,SSW,200,8.0,8.0,76,0.00,,,0.00,0,Wunderground v.1.15,2013-01-20 02:48:00,
2013-01-19 21:57:00,45.6,37.8,29.99,South,176,9.0,9.0,74,0.00,,,0.00,0,Wunderground v.1.15,2013-01-20 02:57:00,
2013-01-19 22:03:00,45.7,37.5,29.99,SSW,211,10.0,12.0,73,0.00,,,0.00,0,Wunderground v.1.15,2013-01-20 03:03:00,
2013-01-19 22:17:00,45.5,38.4,29.98,SSW,195,9.0,9.0,76,0.00,,,0.00,0,Wunderground v.1.15,2013-01-20 03:17:00,
2013-01-19 22:27:00,45.5,38.4,29.98,SSW,211,9.0,20.0,76,0.00,,,0.00,0,Wunderground v.1.15,2013-01-20 03:27:00,
2013-01-19 22:37:00,45.7,38.9,29.97,South,179,10.0,10.0,77,0.00,,,0.00,0,Wunderground v.1.15,2013-01-20 03:37:00,
2013-01-19 22:42:00,45.7,39.2,29.97,SSW,211,10.0,20.0,78,0.00,,,0.00,0,Wunderground v.1.15,2013-01-20 03:42:00,
2013-01-19 22:52:00,45.6,39.8,29.97,SW,230,9.0,12.0,80,0.00,,,0.00,0,Wunderground v.1.15,2013-01-20 03:52:00,
2013-01-19 23:02:00,45.7,40.5,29.96,SW,226,11.0,11.0,82,0.00,,,0.00,0,Wunderground v.1.15,2013-01-20 04:02:00,
2013-01-19 23:12:00,45.7,40.5,29.96,SSW,206,11.0,19.0,82,0.00,,,0.00,0,Wunderground v.1.15,2013-01-20 04:12:00,
2013-01-19 23:27:00,45.8,40.3,29.95,South,176,11.0,20.0,81,0.00,,,0.00,0,Wunderground v.1.15,2013-01-20 04:27:00,
2013-01-19 23:37:00,45.8,40.6,29.94,SSW,212,11.0,11.0,82,0.00,,,0.00,0,Wunderground v.1.15,2013-01-20 04:37:00,
2013-01-19 23:47:00,45.7,40.5,29.94,South,190,10.0,10.0,82,0.00,,,0.00,0,Wunderground v.1.15,2013-01-20 04:47:00,
2013-01-19 23:53:00,45.6,40.4,29.94,South,171,11.0,11.0,82,0.00,,,0.00,0,Wunderground v.1.15,2013-01-20 04:53:00,
2013-01-19 23:58:00,45.6,40.7,29.94,SSW,196,11.0,11.0,83,0.00,,,0.00,0,Wunderground v.1.15,2013-01-20 04:58:00,